Погода в Костромском

Россия / Сахалинская область     47°18′30″N   142°01′15″E
темп.,
°C
ветер,
м/с
пор.,
м/с
влажн.,
%
обл.,
%
осадки,
мм/ч
давл.,
гПа
погр.,
м
17 апреля, сб
сб1723:00+3вюв3480100 0.0 102247
02:00+5юв41266100 0.0 1020350
05:00+3вюв457694 0.0 101877
08:00+4юв41074100 0.1 1017207
11:00+8ююв51277100 0.5 1016788
14:00+6ю41293100 1.8 1016697
17:00+5ююв3696100 5.5 1016196
20:00+6ююв4994100 0.8 1015310
18 апреля, вс
вс1823:00+5вюв2295100 0.8 101521
02:00+6в2295100 0.1 101426
05:00+5в2396100 0.1 101261
08:00+5в3990100 0.6 1011398
11:00+6всв4990100 1.5 1009566
14:00+8всв5980100 0.4 1006491
17:00+4св71587100 0.5 1002614
20:00+3св81790100 0.6 1000899
19 апреля, пн
пн1923:00+3св91894100 2.4 9961065
02:00+2св10188695 1.8 993919
05:00+1ссв111786100 2.1 991850
08:00+1ссв81483100 0.5 990919
11:00+1с71294100 2.6 990815
14:00+2с6895100 1.6 989597
17:00+2ссз6998100 2.9 991379
20:00+1ссз10149499 0.8 993829
20 апреля, вт
вт2023:00+1с71484100 0.9 995758
02:00+1зсз2599100 0.1 996386
05:00+2ююз6995100 0.3 996612
08:00+4ююз81391100 1.3 994788
11:00+2з676358 1.5 9961149
14:00+2з9125298 0.0 9972015
17:00+2зюз9105264 0.0 9981867
20:00+1сз91593100 0.8 10001137
21 апреля, ср
ср2123:00+2сз51286100 1.1 10051008
02:00+2з2390100 0.1 100782
05:00+2сз4984100 0.1 1008235
08:00+3ссз4108411 0.0 1010826
11:00+5сз5107221 0.0 10121100
14:00+6зсз49645 0.0 1012996
17:00+4ссз697688 0.0 1014645
20:00+2ссз5138174 0.0 1015913